KSMOKSAN

Guest
Details From KSMO - Santa Monica Muni
To KSAN - San Diego Intl
Flight Number -
Tags Generated
Created
Modified
Stats Distance 99 nm / 183 km
Max Altitude 0 ft / 0 m
Waypoints 2
Social Downloads 1
Likes 0
Share VATSIM

Download

Looking for another format? Having issues loading an existing format? Contact us
Advertisement - Login to hide

Notes

Generated

Route

KSMO KSAN

ID Type Via Altitude Latitude Longitude Leg Dist Tot Dist Heading (true) Name
O KSMO APT - 0 ft / 0 m 34.01098˚ -118.45709˚ - 0 nm - -
O KSAN APT - 0 ft / 0 m 32.73712˚ -117.20435˚ 98 nm 98 nm 140° / 141° -

Altitude Profile

Advertisement - Login to hide

KSMO

Details ICAO KSMO (SMO)
Name SANTA MONICA MUNI
Region United States
Timezone America/Los_Angeles (UTC-7.0)
Stats Elevation 177 ft / 54 m (AMSL)
Location 34.015847° -118.451329°
Runways 1
Magnetic Variation 11.991° E

METAR

KSMO 202251Z 23009KT 10SM CLR 18/12 A2990 RMK AO2 SLP125 T01830117

Decode

TAF

TAF AMD KSMO 201904Z 2019/2118 23008KT P6SM SCT015 OVC030 FM202100 23008KT P6SM SCT015 OVC035 FM210000 24010KT P6SM SCT030 FM210400 VRB03KT P6SM OVC025 FM211700 24007KT P6SM BKN015 OVC030

Decode

Departure Runways

ID Width Length Bearing (true) Bearing (mag) Surface Threshold Offset Overrun Length
03 151 ft / 46 m 4,978 ft / 1,517 m 44.45° 32.46° Asphalt 0 ft / 0 m 0 ft / 0 m
21 151 ft / 46 m 4,978 ft / 1,517 m 224.46° 212.47° Asphalt 0 ft / 0 m 0 ft / 0 m

KSAN

Details ICAO KSAN (SAN)
Name San Diego Intl
Region United States
Timezone America/Los_Angeles (UTC-7.0)
Stats Elevation 17 ft / 5 m (AMSL)
Location 32.733556° -117.189658°
Runways 1
Magnetic Variation 11.488° E

METAR

KSAN 202251Z 28008KT 10SM BKN012 OVC025 17/13 A2994 RMK AO2 SLP138 T01720133

Decode

TAF

TAF AMD KSAN 202229Z 2022/2124 28009KT P6SM BKN015 BKN025 FM210200 25006KT P6SM OVC016 FM211400 19007KT P6SM OVC022 FM212000 23010KT P6SM BKN025

Decode

Destination Runways

ID Width Length Bearing (true) Bearing (mag) Surface Threshold Offset Overrun Length
09 200 ft / 61 m 9,387 ft / 2,861 m 106.07° 94.58° Asphalt 699 ft / 213 m 269 ft / 82 m
27 200 ft / 61 m 9,387 ft / 2,861 m 286.08° 274.59° Asphalt 1,811 ft / 552 m 0 ft / 0 m

Approach Navaids

Runway Type Ident Frequency Range Bearing (true) Bearing (mag) Slope Elevation
09 Localiser ISAN 111.55 MHz 18 nm / 33 km 106.08° 94.59° - 17 ft / 5 m (AMSL)
09 Glidescope ISAN 111.55 MHz 10 nm / 19 km 106.08° 94.59° 3.22° 13 ft / 4 m (AMSL)
09 DME ISAN 111.55 MHz 18 nm / 33 km - - - 29 ft / 9 m (AMSL)
27 Localiser IUBR 110.90 MHz 18 nm / 33 km 286.07° 274.58° - 13 ft / 4 m (AMSL)
27 DME IUBR 110.90 MHz 18 nm / 33 km - - - 26 ft / 8 m (AMSL)

Popular Alternatives